2018-111Q (43890 NORAD) Tracking and Keplerian Element Data

This shows tracking and keplerian element data for the satellite.

Feedback or suggestion? Click here.




ElementValue
Catalog43890
Name2018-111Q
Epoch Orbit385
Epoch Day22.01953441
Epoch Year2019
RAAN292.1271
Inclination97.7266
Eccentricity0.001005
Argument of Perigee163.7939
Mean Anonmoly196.3539
Mean Motion14.96616969
Decay Rate-1.125E-05
L11 43890U 18111Q 19022.01953441 -.00001125 00000-0 -93642-4 0 9996
L22 43890 97.7266 292.1271 0010050 163.7939 196.3539 14.96616969 3850

Live tracking and technical data element details for 2018-111Q (NORAD 43890). 2018-111Q can be tracked NOW for your location showing map with azimuth and elevation plus other details from your city location.

Track the satellite on the map from your city or location and see movement details for azimuth, elevation, latitude, longitude, range, height, and movement on the map or in text.







IsCatalogInMostPopularTable: catalog: 43890, numindb: 18
Update: records affected: 1



GetName: 43890 2018-111Q

Hit Count: updated at: Wed, 23 Jan 2019 03:23:46 GMT